Regional Weather Roundup
Issued by NWS Wilmington, NC

Home | Current Version | Previous Version | Text Only | Print | Product List | Glossary On
Versions: 1 2 3 4 5 6 7 8 9 10 11 12 13 14 15 16 17 18 19 20 21 22 23 24 25 26 27 28 29 30 31 32 33 34 35 36 37 38 39 40 41 42 43 44 45 46 47 48 49 50
000
ASUS42 KILM 211110
RWRILM
RWRILM
REGIONAL HOURLY WEATHER ROUNDUP
NATIONAL WEATHER SERVICE WILMINGTON NC
600 AM EST SUN DEC 21 2014

NOTE: "FAIR" INDICATES FEW OR NO CLOUDS BELOW 12,000 FEET WITH NO
SIGNIFICANT WEATHER AND/OR OBSTRUCTIONS TO VISIBILITY.

...............WFO WILMINGTON COUNTY WARNING AREA...............

......COASTAL NC AND SC COUNTIES......

CITY           SKY/WX    TMP DP  RH WIND       PRES   REMARKS
WILMINGTON     LGT RAIN  38  34  85 NE9       30.24S WCI  31
SOUTHPORT      CLOUDY    39  36  88 N8        30.23R WCI  34
N MYRTLE BEACH LGT RAIN  41  35  79 NE12      30.21F
MYRTLE BEACH   CLOUDY    43  36  75 N13       30.23R

......INLAND NC AND SC COUNTIES.......

CITY           SKY/WX    TMP DP  RH WIND       PRES   REMARKS
LUMBERTON      CLOUDY    39  35  86 NE7       30.26R WCI  34
ELIZABETHTOWN  CLOUDY    36  36 100 CALM      30.26S FOG
WHITEVILLE     CLOUDY    39  34  82 NE3       30.25R
FLORENCE       CLOUDY    40  36  86 NE5       30.25R
DARLINGTON     MOCLDY    37  32  81 N5        30.26R WCI  34

....................REST OF NORTH CAROLINA......................

.........EASTERN NC.........

CITY           SKY/WX    TMP DP  RH WIND       PRES   REMARKS
CAPE HATTERAS  CLEAR     43  37  79 N8G17     30.25R
JACKSONVILLE   CLOUDY    34  30  86 N6        30.27R WCI  29
MOREHEAD CITY  CLOUDY    40  37  89 NE8       30.25R WCI  34
KENANSVILLE    CLEAR     32  32 100 CALM      30.28S
NEW BERN       PTCLDY    36  32  85 N5        30.28R WCI  32
ELIZABETH CITY MOCLDY    38  30  73 N8        30.30R WCI  32

.........CENTRAL NC.........

CITY           SKY/WX    TMP DP  RH WIND       PRES   REMARKS
RALEIGH DURHAM CLOUDY    38  34  85 CALM      30.27R FOG
ROCKY MOUNT    CLEAR     31  29  92 NE3       30.29R
ROANOKE RAPIDS NOT AVBL
FAYETTEVILLE   CLOUDY    38  36  92 NE9       30.26S WCI  31
HOFFMAN        MOCLDY    39  36  90 NE5       30.27R

.........WESTERN NC.........

CITY           SKY/WX    TMP DP  RH WIND       PRES   REMARKS
CHARLOTTE      CLOUDY    42  34  73 N3        30.24R
GREENSBORO     CLOUDY    39  35  86 CALM      30.24R
HICKORY        NOT AVBL
BOONE          NOT AVBL
ASHEVILLE      NOT AVBL

.....................REST OF SOUTH CAROLINA.....................

.........EASTERN SC.........

CITY           SKY/WX    TMP DP  RH WIND       PRES   REMARKS
CHARLESTON     CLOUDY    45  42  89 N7        30.21R
BEAUFORT MCAS  LGT RAIN  48  45  89 N10       30.20R
HILTON HEAD    NOT AVBL

.........CENTRAL SC.........

CITY           SKY/WX    TMP DP  RH WIND       PRES   REMARKS
COLUMBIA       CLOUDY    45  38  76 NE3       30.23R
ORANGEBURG     CLOUDY    43  39  86 NE9       30.22R
SUMTER SHAW    NOT AVBL

.........WESTERN SC.........

CITY           SKY/WX    TMP DP  RH WIND       PRES   REMARKS
GREENVILLE     NOT AVBL
ROCK HILL      CLOUDY    41  36  82 CALM      30.24R
ANDERSON       CLOUDY    43  40  89 NE5       30.23R
CLEMSON        NOT AVBL
GREENWOOD      CLOUDY    42  39  89 NE5       30.25R


...................COASTAL AND OFFSHORE REPORTS..................

................LOCAL PIERS AND NC RESERVE................


STATION/POSITION TIME  SKY/WX   TEMP    WIND        PRES    VSBY
                                AIR SEA DIR/SP/G
                 (UTC)          (F)     (DEG/KT/KT) (MB)    (MI)
JOHNY MRCER PIER 1100            40 55   20/ 12/ 14 1023.0F
NC RESRV MASNBRO 1000            39     360/  2     1023.0S
OCEAN CREST PIER NOT AVBL
SPRINGMAID  PIER 1100            42 53  360/ 10/ 14 1022.9F


................COASTAL AND OFFSHORE BUOYS................


STATION/POSITION TIME  SKY/WX   TEMP    WIND        PRES    VSBY
                                AIR SEA DIR/SP/G
                 (UTC)          (F)     (DEG/KT/KT) (MB)    (MI)
DIMNDSHOAL 41025 1100            49                 1023.7R
WVE H/P(F/S)=  3/ 4

CAPE LOOKOUT     1000            42      20/ 11/ 13 1023.6S
ONSLOW BAY 41036 1100            50 61   40/ 19/ 21 1023.1R
WVE H/P(F/S)=  5/ 5 WND WVE H/P(F/S)=  5/ 5

5 WRITEBCH 41038 NOT AVBL
MASONBORO  41110 1100               54                N/A
WVE H/P(F/S)=  4/ 5 WND WVE H/P(F/S)=  3/ 5

WILM HARBR 41108 1100               56                N/A
WVE H/P(F/S)=  3/ 5 WND WVE H/P(F/S)=  3/ 5

27WRITEBCH 41037 1000            49 63   60/ 17/ 21 1023.0F
FRYING PAN 41013 1100            57 69   40/ 19/ 23 1021.8F
WVE H/P(F/S)=  5/ 6 WND WVE H/P(F/S)=  5/ 6 SWL H/P/D(F/S/D)=  2/120/10

SUNST NRSH 41024 1000            42      40/ 14/ 16   N/A
CAPRS NRSH 41029 1000            47      30/ 16/ 17   N/A
EDISTO     41004 1100            61 71   20/ 19/ 23 1020.0R
WVE H/P(F/S)=  6/ 6 WND WVE H/P(F/S)=  5/ 6 SWL H/P/D(F/S/D)=  2/ 9



..........OFFSHORE BUOYS BEYOND 100 NM OFFSHORE...........
.....IN A TRIANGLE---HAT TO BERMUDA TO BAHAMAS TO HAT.....


STATION/POSITION TIME  SKY/WX   TEMP    WIND        PRES    VSBY
                                AIR SEA DIR/SP/G
                 (UTC)          (F)     (DEG/KT/KT) (MB)    (MI)
150E HAT   41001 NOT AVBL
W BERMUDA  41048 1039            65 72   50/ 16/ 17 1021.0R
WVE H/P(F/S)=  3/ 7 WND WVE H/P(F/S)=  2/ 4 SWL H/P/D(F/S/D)=  3/350/ 7

ATLANTIC S 41049 1044            74 77  110/  4/  6 1020.3R
WVE H/P(F/S)=  5/ 9 SWL H/P/D(F/S/D)=  5/ 20/ 9

E BAHAMAS  41046 1050            76 79  100/ 12/ 16 1019.1R
WVE H/P(F/S)=  5/ 8 WND WVE H/P(F/S)=  2/ 5 SWL H/P/D(F/S/D)=  3/ 30/ 8

NE BAHAMAS 41047 NOT AVBL
120E CANVRL41010 1100            75 77  200/ 10/ 12 1018.6R
WVE H/P(F/S)=  2/11 WND WVE H/P(F/S)=  2/ 3 SWL H/P/D(F/S/D)=  2/120/11


END


USA.gov is the U.S. government's official web portal to all federal, state and local government web resources and services.